User: anonymous   Login
Location: Unspecified
(0.0000°N, 0.0000°E)
Time: 18:02:10
(UTC+00:00)
Language:

STARLINK-3281 - Orbit

View from above orbital plane
View from above orbital plane
View from above satellite
View from above satellite

Ground track
Ground track

The orbit is defined by the following mean orbital elements,

1 50183U          26145.04073117 +.00000000 +00000-0 +80204-4 0 00009
2 50183  53.2127 266.3663 0001295  93.4625 266.6515 15.08831055    04
Epoch (UTC): 25 May 2026 00:58:39
Eccentricity: 0.0001295
inclination: 53.2127°
perigee height: 539 km
apogee height: 541 km
right ascension of ascending node: 266.3663°
argument of perigee: 93.4625°
revolutions per day: 15.08831055
mean anomaly at epoch: 266.6515°

The dashed part of the orbit path shows where the satellite is in the earth's shadow,  

DLR